Weather in Port Louis

Mauritius     20°09′54″S   57°29′57″E
temp.,
°C
wind,
m/s
gust,
m/s
humid.,
%
clouds,
%
prec.,
mm/h
press.,
hPa
HPBL,
m
15 may, sat
sat1501:00+22se511763 0.0 1019760
04:00+22se511795 0.1 1018727
07:00+22ese510730 0.0 1019722
10:00+25ese79654 0.0 10191068
13:00+26ese796325 0.1 10171341
16:00+24ese797131 0.2 10171104
19:00+23ese6107527 0.2 10181084
22:00+23ese6106722 0.2 10191044
16 may, sun
sun1601:00+21ese510720 0.0 1019718
04:00+21se49766 0.0 1017454
07:00+21se4107914 0.0 1018540
10:00+24ese797364 0.3 10191013
13:00+26e68510 0.3 10171301
16:00+25ese68657 0.3 10161150
19:00+22ese510761 0.0 1017685
22:00+22ese610731 0.0 1018831
17 may, mon
mon1701:00+22e5108135 0.1 1017722
04:00+21ese510750 0.1 1017576
07:00+21ese49760 0.0 1018404
10:00+25e676334 0.0 10191221
13:00+26e57550 0.0 10171266
16:00+25e576420 0.0 10161086
19:00+22ese597519 0.0 1018688
22:00+22ese497834 0.0 1018607
18 may, tue
tue1801:00+21ese39779 0.0 1018427
04:00+20se38775 0.0 1017291
07:00+20se397892 0.0 1017405
10:00+24ese7966100 0.0 10181180
13:00+25ese676026 0.1 10161346
16:00+24se5655100 0.1 10151140
19:00+21se39735 0.0 1017565
22:00+20se38733 0.0 1018363
19 may, wed
wed1901:00+20sse49765 0.0 1017400
04:00+20sse5108098 0.0 1015519
07:00+21se511799 0.0 1016639
10:00+24se796310 0.0 10171107
13:00+24se786230 0.0 10151241
16:00+24se686326 0.1 10141296
19:00+21se511624 0.0 1015920
22:00+22ese5116816 0.1 1017885